Location: Siratepeler Tepesi
(39.1042°N, 32.0781°E)
Time: 00:53:31
(UTC+00:00)

Cosmos 1943 Rocket - Pass Details

Date: 11 April 2026
Orbit: 809 x 844 km, 71.0° (Epoch: 13 May)

Event Time Altitude Azimuth Distance (km) Brightness Sun altitude
Rises 18:23:22 0° 344° (NNW) 3,409 6.1 -22.1°
Reaches altitude 10° 18:26:02 10° 354° (N) 2,470 5.1 -22.5°
Maximum altitude 18:31:13 36° 60° (ENE) 1,320 3.0 -23.3°
Enters shadow 18:31:31 35° 67° (ENE) 1,325 2.9 -23.4°
